Flag for Germany Weather for the Past 2 Weeks in Rottenburg am Neckar, Baden-Württemberg, Germany

Now
36 °F

Passing clouds.


Feels Like: 27 °F
Forecast: 28 / 42 °F
Wind: 12 mph from Southwest

Location: Stuttgart-Echterdingen

Current Time: Feb 11, 2016 at 7:54:57 AM

Latest Report: Feb 11, 2016 at 7:20 AM


Visibility: N/A

Pressure: 29.71 "Hg

Humidity: 87%

Dew point: 32 °F

Location of Rottenburg am NeckarLocation

Historic Weather in Rottenburg am Neckar — Graph

°F

Rottenburg am Neckar Temperature Yesterday

Maximum temperature yesterday: 39 °F (at 10:20 AM)
Minimum temperature yesterday: 34 °F (at 7:50 AM)
Average temperature yesterday: 37 °F

High & Low Weather Summary for the Past Weeks

 TemperatureHumidityPressure
High57 °F (Feb 6, 1:20 PM)100% (Jan 28, 7:20 PM)30.45 "Hg (Jan 28, 7:20 PM)
Low32 °F (Feb 6, 4:20 AM)44% (Feb 6, 1:20 PM)29.15 "Hg (Feb 9, 5:50 PM)
Average44 °F80%30.00 "Hg
* Reported Jan 27 6:20 AM — Feb 11 6:50 AM, Rottenburg am Neckar, Weather by CustomWeather, © 2016

Note: Actual official high and low records may vary slightly from our data, if they occured in-between our weather recording intervals... More about our weather records

Advertising

Rottenburg am Neckar Weather History for the Previous 24 Hours

 ConditionsComfort  
Time TempWeatherWind HumidityBarometerVisibility
6:50 AM
Thu, Feb 11
36 °FPartly cloudy.10 mph87%29.71 "HgN/A
6:20 AM36 °FPassing clouds.10 mph87%29.71 "HgN/A
5:50 AM36 °FPassing clouds.10 mph87%29.71 "HgN/A
5:20 AM36 °FPartly cloudy.12 mph87%29.71 "HgN/A
4:50 AM36 °FPassing clouds.12 mph87%29.68 "HgN/A
4:20 AM36 °FLight snow. Passing clouds.10 mph87%29.68 "HgN/A
3:20 AM36 °FPassing clouds.9 mph87%29.68 "HgN/A
2:50 AM36 °FLight snow. Passing clouds.10 mph87%29.68 "HgN/A
2:20 AM36 °FLight snow. Passing clouds.10 mph87%29.68 "HgN/A
1:50 AM36 °FLight snow. Passing clouds.10 mph87%29.65 "HgN/A
1:20 AM36 °FLight snow. Partly cloudy.12 mph87%29.65 "HgN/A
12:50 AM36 °FLight snow. Partly cloudy.10 mph87%29.65 "HgN/A
12:20 AM36 °FLight snow. Passing clouds.10 mph87%29.62 "HgN/A
11:50 PM
Wed, Feb 10
37 °FLight snow. Passing clouds.12 mph75%29.62 "HgN/A
10:50 PM37 °FPassing clouds.13 mph75%29.62 "HgN/A
10:20 PM37 °FPartly cloudy.13 mph75%29.59 "HgN/A
9:50 PM37 °FPartly cloudy.13 mph75%29.59 "HgN/A
9:20 PM37 °FPassing clouds.14 mph75%29.59 "HgN/A
8:50 PM37 °FPassing clouds.15 mph75%29.59 "HgN/A
8:20 PM37 °FPassing clouds.17 mph75%29.56 "HgN/A
7:50 PM39 °FPassing clouds.15 mph70%29.56 "HgN/A
7:20 PM37 °FPassing clouds.15 mph75%29.56 "HgN/A
6:50 PM37 °FPartly cloudy.14 mph75%29.56 "HgN/A
6:20 PM37 °FPartly cloudy.15 mph81%29.53 "HgN/A
5:50 PM37 °FSnow flurries. Partly cloudy.12 mph81%29.53 "HgN/A
5:20 PM37 °FBroken clouds.10 mph81%29.53 "HgN/A
4:50 PM37 °FBroken clouds.12 mph81%29.50 "HgN/A
4:20 PM37 °FBroken clouds.13 mph87%29.50 "HgN/A
3:50 PM37 °FBroken clouds.12 mph87%29.50 "HgN/A
3:20 PM37 °FSnow flurries. Partly sunny.13 mph87%29.50 "HgN/A
2:50 PM37 °FSnow flurries. Partly sunny.14 mph87%29.47 "HgN/A
2:20 PM37 °FPartly sunny.16 mph81%29.47 "HgN/A
1:50 PM37 °FPartly sunny.15 mph87%29.47 "HgN/A
1:20 PM37 °FBroken clouds.16 mph81%29.47 "HgN/A
12:50 PM39 °FPartly sunny.13 mph75%29.47 "HgN/A
12:20 PM39 °FLight snow. Partly sunny.15 mph75%29.50 "HgN/A
11:50 AM39 °FPartly sunny.16 mph75%29.47 "HgN/A
11:20 AM39 °FLight snow. Partly sunny.14 mph70%29.47 "HgN/A
10:50 AM39 °FScattered clouds.12 mph75%29.47 "HgN/A
10:20 AM39 °FScattered clouds.12 mph75%29.47 "HgN/A
9:50 AM37 °FScattered clouds.8 mph81%29.47 "HgN/A
9:20 AM36 °FScattered clouds.8 mph87%29.47 "HgN/A
8:50 AM36 °FScattered clouds.6 mph93%29.47 "HgN/A
8:20 AM34 °FScattered clouds.5 mph93%29.47 "HgN/A
7:50 AM34 °FPartly sunny.3 mph93%29.45 "HgN/A
7:20 AM36 °FPartly cloudy.5 mph93%29.45 "HgN/A
Weather by CustomWeather, © 2016

See weather overviewHow to use our weather pages